Flag for Romania Weather past 2 weeks in Brăila, Romania

Now
64 °F

Overcast.


Feels Like: 64 °F
Forecast: 59 / 81 °F
Wind: 1 mph from Northeast

Location: Galati

Current Time: May 25, 2015 at 7:30:49 AM

Latest Report: May 25, 2015 at 5:00 AM


Visibility: 6 mi

Pressure: 29.84 "Hg

Humidity: 96%

Dew point: 62 °F

Location of BrăilaLocation

Historic Weather in Brăila — Graph

°F

Brăila temperature yesterday

Maximum temperature yesterday: 84 °F (at 5:00 PM)
Minimum temperature yesterday: 58 °F (at 7:00 AM)
Average temperature yesterday: 72 °F

Past Weeks' High & Low Weather Summary

 TemperatureHumidityPressure
High84 °F (May 23, 3:00 PM)99% (May 20, 6:00 AM)30.27 "Hg (May 20, 6:00 AM)
Low51 °F (May 11, 6:00 AM)22% (May 13, 4:00 PM)29.68 "Hg (May 14, 7:00 PM)
Average67 °F55%30.00 "Hg
* Reported May 10 5:00 AM — May 25 5:00 AM, Brăila, Weather by CustomWeather, © 2015

Note: Actual official high and low records may vary slightly from our data, if they occured in-between our weather recording intervals... More about our weather records

Advertising

Brăila weather history for previous 24 hours

 ConditionsComfort  
Time TempWeatherWind HumidityBarometerVisibility
5:00 AM
Mon, May 25
64 °FOvercast.1 mph96%29.84 "Hg6 mi
4:00 AM64 °FPassing clouds.2 mph94%29.85 "Hg6 mi
3:00 AM66 °FPassing clouds.1 mph88%29.85 "Hg12 mi
2:00 AM67 °FPassing clouds.1 mph86%29.85 "Hg12 mi
1:00 AM69 °FPassing clouds.1 mph80%29.84 "Hg12 mi
12:00 AM70 °FPassing clouds.1 mph81%29.83 "Hg12 mi
11:00 PM
Sun, May 24
71 °FPassing clouds.1 mph71%29.83 "Hg12 mi
10:00 PM73 °FPassing clouds.2 mph60%29.83 "Hg12 mi
9:00 PM75 °FOvercast.1 mph54%29.81 "Hg12 mi
8:00 PM79 °FOvercast.2 mph46%29.80 "Hg12 mi
7:00 PM82 °FOvercast.2 mph37%29.80 "Hg12 mi
6:00 PM84 °FOvercast.1 mph36%29.82 "Hg12 mi
5:00 PM84 °FPartly sunny.2 mph35%29.83 "Hg12 mi
4:00 PM84 °FScattered clouds.2 mph35%29.84 "Hg12 mi
3:00 PM83 °FScattered clouds.2 mph34%29.85 "Hg12 mi
2:00 PM82 °FPartly sunny.1 mph34%29.86 "Hg12 mi
1:00 PM79 °FPartly sunny.1 mph40%29.87 "Hg12 mi
12:00 PM77 °FPartly sunny.2 mph44%29.87 "Hg12 mi
11:00 AM74 °FPartly sunny.1 mph48%29.88 "Hg12 mi
10:00 AM71 °FScattered clouds.2 mph50%29.87 "Hg12 mi
9:00 AM66 °FScattered clouds.2 mph62%29.87 "Hg12 mi
8:00 AM60 °FScattered clouds.2 mph76%29.87 "Hg12 mi
7:00 AM58 °FPassing clouds.2 mph77%29.87 "Hg12 mi
Weather by CustomWeather, © 2015

See weather overviewHow to use our weather pages